Regional Weather Roundup
Issued by NWS Raleigh/Durham, NC

Home | Current Version | Previous Version | Text Only | Print | Product List | Glossary On
Versions: 1 2 3 4 5 6 7 8 9 10 11 12 13 14 15 16 17 18 19 20 21 22 23 24 25 26 27
000
ASUS42 KRAH 311710
RWRRAH
NORTH CAROLINA WEATHER ROUNDUP
NATIONAL WEATHER SERVICE RALEIGH NC
100 PM EDT FRI OCT 31 2014

NOTE: "FAIR" INDICATES FEW OR NO CLOUDS BELOW 12,000 FEET WITH NO
SIGNIFICANT WEATHER AND/OR OBSTRUCTIONS TO VISIBILITY.

NCZ001-053-055-056-065-067-311800-
WESTERN NORTH CAROLINA

CITY           SKY/WX    TMP DP  RH WIND       PRES   REMARKS
ASHEVILLE      PTSUNNY   55  37  50 CALM      29.89F
JEFFERSON      CLOUDY    47  35  64 CALM      29.87F
MORGANTON      PTSUNNY   53  41  63 CALM      29.94F
HICKORY        CLOUDY    51  40  65 CALM      29.90F
RUTHERFORDTON  MOSUNNY   57  40  52 CALM      29.90F
MOUNT AIRY     CLOUDY    51  38  61 SE5       29.92F
BOONE          CLOUDY    47  37  68 SE5       29.88F
$$

NCZ021-022-025-041-071-084-088-311800-
CENTRAL NORTH CAROLINA

CITY           SKY/WX    TMP DP  RH WIND       PRES   REMARKS
CHARLOTTE      PTSUNNY   57  41  55 CALM      29.91F
GREENSBORO     PTSUNNY   54  40  59 VRB3      29.90F
WINSTON-SALEM  CLOUDY    52  37  56 N3        29.92F
RALEIGH-DURHAM MOSUNNY   60  41  49 VRB3      29.90F
FORT BRAGG     MOSUNNY   62  44  50 NE6       29.87F
FAYETTEVILLE   MOSUNNY   64  44  48 N8        29.87F
BURLINGTON     PTSUNNY   58  39  49 VRB3      29.90F
LAURINBURG     SUNNY     64  43  46 N6        29.88F
$$

NCZ011-015-027-028-043-044-047-080-103-311800-
NORTHEASTERN NORTH CAROLINA

CITY           SKY/WX    TMP DP  RH WIND       PRES   REMARKS
ROCKY MT-WILSO SUNNY     63  41  44 N10       29.88F
GREENVILLE     SUNNY     63  43  48 NE13      29.88F
WASHINGTON     SUNNY     63  41  44 N12G18    29.85F
ELIZABETH CITY MOSUNNY   65  46  50 N14       29.84F
MANTEO         CLOUDY    61  48  63 N12       29.82F
CAPE HATTERAS  CLOUDY    63  52  67 NE14G23   29.79F
$$

NCZ078-087-090-091-093-098-101-311800-
SOUTHEASTERN NORTH CAROLINA

CITY           SKY/WX    TMP DP  RH WIND       PRES   REMARKS
LUMBERTON      SUNNY     66  43  43 CALM      29.86F
GOLDSBORO      SUNNY     64  47  55 N13       29.85F
KINSTON        SUNNY     64  41  42 NE14      29.86F
KENANSVILLE    SUNNY     63  42  47 N5        29.87F
NEW BERN       SUNNY     66  46  48 N14       29.85F
CHERRY POINT   MOSUNNY   66  45  46 NE15      29.83F
BEAUFORT       PTSUNNY   64  50  60 N17G23    29.82F
JACKSONVILLE   SUNNY     65  43  44 N9G22     29.83F
WILMINGTON     SUNNY     65  44  46 NE14G21   29.84F
$$




USA.gov is the U.S. government's official web portal to all federal, state and local government web resources and services.